Wind_Speed
18 17 16 14 12 11 12 14 14 14 14 15 14 15 15 15 14 13 12 12 12 11 10 10 10 11 12 13 13 14 14 14 14 14 14 14 14 15 16 18 18 18 18 19 19 20 21 22 24 25 26 27 28 29 30 31 32 32 34 35 36 38 38 39 41 40 40 40 41 40 39 39 38 39 40 39 38 39 39 39 38 38 39 39 38
20 18 16 14 12 11 13 14 14 15 15 15 15 14 13 12 11 11 10 10 9 9 9 9 10 11 12 13 14 14 14 13 13 13 13 14 15 15 17 17 18 17 17 18 18 20 21 23 24 25 26 27 28 29 29 30 31 32 33 35 36 37 39 40 41 41 41 40 41 41 41 41 40 39 40 40 40 39 40 40 39 39 39 39 40
20 18 16 15 14 14 15 15 15 15 15 15 14 13 12 10 9 8 7 8 8 8 8 9 10 11 12 13 13 13 12 12 12 13 13 14 15 16 17 17 17 17 17 18 19 20 22 23 24 25 26 27 27 29 29 30 32 33 34 35 36 37 38 39 40 41 42 42 42 43 43 43 43 42 41 40 39 39 39 39 39 39 38 39 40
18 17 16 15 16 16 16 16 16 15 15 14 12 11 10 8 7 6 6 7 8 7 8 9 10 11 12 12 12 11 11 11 12 13 14 15 16 16 16 16 16 17 17 18 19 20 22 23 25 25 26 26 27 28 30 31 32 33 34 35 36 37 38 39 40 42 43 43 44 45 46 45 44 44 43 41 39 37 36 36 36 37 36 36 38
16 15 14 14 14 16 17 17 16 14 13 12 11 9 8 6 5 5 6 7 7 7 9 10 10 11 11 11 10 10 11 12 13 14 14 15 15 15 15 16 16 17 18 19 19 20 21 23 24 25 25 26 28 29 30 32 32 33 34 35 35 36 37 39 40 42 43 45 45 45 46 46 45 43 44 44 42 39 35 33 32 33 34 33 33
14 13 12 13 14 15 15 16 15 13 12 11 9 8 6 5 5 6 7 7 7 8 9 10 10 10 10 10 10 11 12 12 13 14 15 15 15 15 15 15 16 17 18 19 20 21 22 22 24 25 26 28 29 30 30 31 32 33 34 35 36 36 38 39 41 42 43 45 46 46 46 45 45 44 44 45 45 44 40 34 30 29 31 32 31
14 12 12 13 14 13 14 14 14 12 11 9 8 7 6 5 6 7 7 7 7 8 9 9 9 9 9 10 10 11 12 12 13 14 14 14 14 14 15 15 16 17 18 20 21 21 22 22 24 25 27 29 30 30 31 31 32 33 34 35 36 37 38 40 41 43 44 45 45 46 46 46 46 46 45 45 46 45 45 41 35 29 29 31 32
14 13 13 13 13 13 13 13 13 12 10 8 7 7 6 6 7 7 7 8 8 9 9 9 9 9 9 10 11 11 12 12 13 13 13 13 13 14 14 15 16 17 19 20 21 22 23 23 24 26 27 28 29 31 32 32 33 34 34 35 37 38 40 41 43 44 45 46 46 46 47 47 46 46 45 46 46 46 46 47 44 38 34 33 33
15 14 14 14 14 13 13 13 13 11 9 8 8 7 6 6 7 8 8 8 9 9 9 9 9 9 10 10 11 11 12 12 12 12 12 13 13 14 14 15 16 18 19 20 21 22 23 24 25 26 27 28 29 30 31 32 33 34 35 37 38 40 41 42 44 45 46 46 46 47 48 48 47 47 46 47 49 49 50 51 51 49 45 39 35
16 15 14 14 14 14 13 12 12 11 9 8 8 7 7 7 8 9 9 9 9 9 9 9 9 9 10 10 10 11 11 11 11 11 12 12 13 14 15 16 16 17 19 20 21 22 23 24 25 25 26 27 28 29 30 31 32 33 35 38 39 41 43 43 44 45 46 47 47 48 49 49 47 47 48 48 50 53 54 56 56 56 54 48 40
17 15 14 14 14 14 13 13 12 11 10 9 8 8 7 9 10 10 9 9 9 10 9 9 9 9 10 10 10 11 11 10 10 11 11 12 13 14 15 16 16 17 18 19 21 22 22 23 24 25 26 26 27 28 28 29 31 33 35 37 39 40 42 43 44 45 46 47 47 48 49 49 48 47 48 50 52 55 57 60 61 61 60 57 50
17 16 15 15 15 14 13 14 12 11 10 9 9 8 9 10 10 10 10 10 10 10 9 9 9 9 9 9 10 10 10 10 10 10 11 12 13 14 15 15 16 16 18 19 20 21 22 23 24 25 26 26 27 27 28 29 31 33 35 36 37 38 39 41 42 44 45 46 47 47 48 49 49 48 49 52 54 57 59 61 63 64 63 62 57
17 16 15 15 15 15 14 14 13 11 11 10 9 9 10 11 11 10 10 10 10 10 9 9 9 9 9 9 9 9 9 9 9 10 11 12 12 13 14 15 16 16 17 18 19 20 21 22 23 24 26 26 27 27 29 30 31 32 34 35 36 37 37 38 39 40 42 44 46 47 47 48 49 49 50 52 55 58 61 63 65 64 62 58 53
16 15 15 15 16 16 15 15 13 12 12 11 10 11 11 12 11 11 11 11 10 10 9 9 9 8 8 8 8 7 8 8 9 10 10 11 12 12 14 15 16 16 17 18 19 20 21 22 23 24 26 26 28 29 30 31 32 32 33 34 35 36 36 37 37 38 40 42 45 46 45 46 47 48 48 50 53 57 61 64 64 62 59 52 45
17 15 15 16 17 17 16 16 14 13 13 12 12 12 12 12 12 11 11 11 11 10 10 9 8 8 7 7 7 7 7 8 9 9 10 10 11 12 14 15 15 16 17 18 19 20 21 22 23 25 26 27 29 31 32 32 32 32 33 34 35 36 36 37 37 38 40 41 43 44 44 44 45 46 47 48 51 56 59 61 61 59 54 47 39
18 15 15 17 17 16 16 16 15 14 13 13 13 13 13 13 13 13 12 11 11 10 10 9 8 7 6 6 6 6 7 7 8 8 9 10 11 12 13 14 14 15 16 18 19 20 21 22 23 25 26 28 30 31 32 33 33 33 33 33 34 35 35 36 36 38 39 40 40 42 43 43 43 43 44 45 50 55 58 59 58 55 51 44 38
18 16 16 17 15 14 16 17 15 14 13 14 14 14 14 14 14 13 12 11 11 11 9 8 7 6 5 5 5 6 6 6 7 7 8 9 11 12 12 13 14 15 16 17 18 20 21 22 23 25 27 29 30 31 31 32 33 33 34 34 35 36 36 36 37 37 38 38 39 41 41 42 42 42 41 43 47 53 57 59 57 53 49 44 39
17 17 16 15 14 14 17 18 16 14 14 15 15 15 15 15 14 14 13 12 11 10 9 7 6 5 4 5 5 5 5 5 6 6 7 9 10 11 11 12 14 15 17 17 18 20 21 23 24 26 27 28 29 30 31 32 33 35 35 36 36 36 38 39 40 39 39 39 40 40 41 42 43 41 40 41 45 50 54 55 54 52 49 44 42
18 17 16 14 14 15 17 18 16 15 16 16 16 17 16 16 15 15 14 13 11 10 8 7 6 5 4 4 4 4 4 4 5 6 7 8 9 9 11 13 14 16 17 18 19 21 22 23 25 26 26 27 28 29 31 32 33 35 36 37 38 38 40 41 42 42 42 42 42 43 43 44 45 42 40 40 44 47 49 51 51 50 48 44 42
19 18 15 14 14 15 17 18 17 16 17 17 18 18 18 17 16 16 15 14 12 10 8 6 5 5 4 4 3 2 2 3 3 5 6 7 8 9 11 13 15 16 17 18 20 21 23 23 24 25 25 27 28 29 30 32 33 35 37 38 39 40 41 41 41 42 43 43 44 44 45 46 46 44 41 41 43 46 47 49 49 47 46 43 39
19 17 15 14 14 15 16 18 18 18 19 19 19 19 19 18 17 16 15 14 12 10 8 7 6 5 4 3 2 2 1 1 2 4 5 6 7 9 11 13 15 16 17 19 20 21 22 22 23 24 25 26 27 28 30 31 33 35 36 38 39 40 40 40 40 41 42 42 44 45 46 48 48 46 43 42 44 46 48 49 47 45 42 41 38
18 15 14 15 15 15 16 20 20 20 20 20 20 20 20 20 19 17 16 14 12 10 8 7 7 6 4 3 3 3 2 1 2 4 5 6 7 9 11 13 14 16 17 18 20 21 21 22 23 24 25 27 28 28 29 30 32 34 36 37 39 39 39 39 40 40 41 42 44 46 47 49 51 49 46 44 46 48 49 49 46 42 38 36 36
16 15 15 15 15 15 17 21 21 21 21 21 21 22 21 20 20 18 16 14 12 10 9 8 7 6 5 5 5 4 3 2 3 4 5 5 6 9 11 12 14 15 16 18 19 20 21 22 23 24 25 27 28 28 29 30 31 33 35 36 38 39 39 39 39 40 42 43 44 46 48 50 52 52 49 47 48 50 50 49 44 39 34 32 32
17 18 17 17 16 15 18 22 22 22 21 22 22 23 22 21 20 19 17 15 12 11 10 9 8 7 6 6 6 5 4 3 3 4 4 4 6 9 10 11 13 14 15 17 18 20 21 22 23 24 25 26 28 29 29 29 30 32 34 35 37 39 40 40 40 41 42 44 46 47 49 50 52 53 51 48 48 49 49 47 43 36 31 30 30
20 19 18 18 16 15 19 23 23 22 22 22 23 23 23 22 21 19 17 14 12 11 11 10 9 8 8 8 8 6 4 3 3 3 3 4 6 8 10 11 13 14 15 16 18 19 20 22 23 24 25 26 27 28 28 29 29 31 32 34 36 38 40 41 42 42 43 45 46 47 48 49 50 52 50 47 46 47 49 48 42 33 27 27 28
20 19 18 17 16 16 20 24 25 23 23 23 24 24 24 22 21 19 17 15 13 13 12 10 10 10 10 10 8 6 4 3 3 2 2 4 6 8 9 11 12 13 15 16 17 19 20 21 22 23 24 25 27 28 29 29 29 30 31 32 35 37 40 41 43 43 43 44 45 46 47 48 48 50 50 47 46 47 50 50 45 34 26 25 25
21 20 18 17 17 18 22 25 25 24 24 25 26 26 25 24 22 20 17 15 15 14 13 12 12 12 12 10 8 6 5 3 2 0 2 4 6 8 9 10 12 13 14 16 17 18 19 20 21 22 23 24 26 27 28 28 28 28 30 31 33 36 38 40 42 43 43 44 44 45 46 46 47 49 51 50 48 47 49 50 47 40 32 27 24
21 20 17 16 17 19 24 27 26 24 25 26 27 27 26 25 23 20 18 17 16 14 13 14 15 15 13 11 9 7 5 3 1 1 2 4 6 7 9 10 12 13 15 16 16 17 18 19 20 20 21 22 23 24 26 27 27 28 29 30 32 34 36 38 40 42 43 44 44 44 45 46 47 48 50 51 50 48 48 49 48 44 37 31 28
21 19 17 16 17 21 26 27 26 25 25 27 28 28 26 25 23 21 19 18 17 16 16 17 17 16 14 11 9 7 5 3 2 2 2 4 5 7 8 10 11 12 14 15 16 17 18 18 19 19 20 20 21 22 23 25 26 27 28 30 31 33 35 37 39 41 44 44 44 45 45 46 47 48 49 51 51 49 48 47 47 47 42 37 35
22 19 16 15 18 24 28 27 26 26 27 28 29 28 27 25 23 21 19 18 18 18 19 19 18 16 14 12 10 7 5 4 3 2 2 3 5 6 8 10 11 12 13 14 15 16 17 18 19 19 19 20 21 22 23 24 26 27 28 29 31 32 34 36 38 40 42 44 45 45 45 46 47 48 49 50 51 50 48 46 46 46 45 44 43
20 16 14 13 18 25 28 27 26 26 27 29 29 28 26 25 23 21 20 19 19 20 20 20 18 16 14 12 10 8 6 5 3 2 2 3 4 6 7 9 11 12 13 14 15 16 17 18 19 19 20 21 22 22 23 25 26 27 28 29 30 32 33 35 37 39 40 42 43 45 45 45 46 47 48 49 49 49 49 47 46 45 45 46 47
17 15 15 14 18 25 28 27 26 26 27 29 29 28 26 24 22 21 20 20 21 21 21 20 18 17 15 12 10 8 7 5 4 2 2 3 4 6 7 8 10 11 13 14 15 16 17 18 19 20 20 21 22 23 24 24 25 26 27 28 29 30 32 34 36 37 39 40 42 43 45 45 45 46 47 47 48 49 49 49 47 46 45 45 46
16 17 16 14 18 26 28 26 25 25 26 28 29 28 26 23 21 20 20 20 21 21 21 20 19 17 15 12 10 9 7 6 5 3 3 4 5 6 7 9 10 11 12 14 15 16 17 18 19 20 21 21 22 23 23 24 25 25 26 27 28 29 31 32 34 35 36 38 40 41 43 44 44 45 45 46 47 48 49 49 48 47 46 45 45
18 18 15 15 20 26 27 26 25 25 26 28 28 27 25 23 21 21 21 21 21 21 21 20 18 16 15 12 11 9 8 7 5 4 4 5 5 7 8 9 11 12 13 14 16 16 17 18 19 20 21 21 22 23 23 24 24 24 25 26 27 27 28 30 31 32 34 36 38 39 41 43 44 44 45 45 45 46 47 48 48 48 47 47 45
19 17 16 17 22 25 26 26 25 25 27 29 28 27 25 23 21 22 23 23 23 22 21 20 19 17 15 13 11 10 10 8 6 5 5 6 6 7 9 10 12 13 14 15 16 17 18 18 20 20 21 21 22 22 23 23 24 24 25 25 25 26 26 27 29 30 32 34 35 37 39 40 42 43 44 45 45 45 46 46 47 47 47 47 46
19 17 17 19 22 25 26 26 25 25 27 29 28 26 24 23 23 24 25 25 25 24 23 22 20 18 15 13 12 11 10 9 7 6 6 7 7 8 10 11 12 13 15 16 17 18 18 19 20 20 20 21 21 22 23 23 24 24 25 25 25 25 26 26 27 28 30 31 33 35 36 38 40 41 42 43 44 44 44 44 45 45 45 45 45
17 16 16 18 22 26 26 26 25 26 28 29 28 27 26 26 26 27 27 26 26 25 25 23 21 18 15 14 14 13 11 10 8 8 7 8 9 9 11 12 13 14 15 16 17 18 19 19 20 20 21 21 21 22 22 23 23 24 24 25 24 24 25 25 25 26 27 28 30 32 34 36 38 39 41 42 43 43 43 43 43 43 43 43 43
17 16 16 17 22 25 26 26 26 27 29 30 29 28 28 28 28 29 28 27 27 26 25 23 21 18 16 16 15 13 12 10 9 9 9 9 9 11 12 13 15 15 16 17 18 18 19 19 20 21 21 21 21 21 22 22 23 23 23 24 24 24 24 24 24 24 24 25 27 28 31 33 35 37 38 40 41 41 42 42 41 41 41 41 41
19 17 16 17 21 25 26 26 26 28 31 32 31 30 29 29 30 30 29 28 27 26 25 23 21 18 17 17 16 14 13 12 11 11 10 10 10 11 13 14 15 16 17 17 18 19 19 20 21 21 22 21 21 21 21 21 22 22 22 23 24 23 23 23 23 22 22 23 24 26 27 29 32 34 36 37 38 39 40 40 40 40 40 40 40
23 19 17 18 22 25 26 26 27 29 31 32 31 31 30 30 30 29 28 28 27 26 25 23 21 19 18 18 17 15 13 13 12 12 12 12 12 13 14 15 16 16 17 18 19 20 20 21 22 22 23 23 22 21 20 20 20 21 21 22 23 23 23 23 23 22 22 22 22 23 25 26 28 30 32 34 36 37 38 38 39 39 39 38 38
26 23 20 21 23 26 28 28 29 30 31 31 32 32 31 31 30 29 28 28 27 25 24 24 22 20 20 19 18 16 14 14 13 13 12 13 14 15 16 16 17 17 18 19 20 21 21 22 22 23 23 23 22 20 19 19 19 19 19 20 21 21 22 22 22 23 23 22 22 22 23 24 25 27 28 30 32 34 34 35 36 36 36 36 36
29 27 24 23 25 28 30 31 31 31 31 32 32 32 31 31 30 29 28 27 26 25 25 25 23 21 21 20 18 17 16 15 14 13 13 15 16 17 18 18 18 18 19 20 21 22 22 23 23 24 23 22 21 20 19 20 20 20 19 19 19 20 20 21 21 22 22 22 22 22 22 22 23 24 25 27 28 30 31 32 33 33 33 34 34
32 30 26 24 25 29 31 31 32 32 32 32 30 30 30 30 30 29 28 27 26 25 25 24 23 22 21 20 19 19 17 16 16 15 15 16 17 18 18 19 19 20 20 20 21 22 23 24 24 24 22 21 20 20 20 20 21 21 21 21 20 20 20 20 20 20 20 21 22 22 22 22 22 22 23 23 24 26 27 28 29 30 31 31 31
34 31 26 24 26 29 31 32 32 32 31 29 29 29 30 30 29 28 27 26 26 26 25 25 24 23 22 21 21 20 18 18 17 17 17 18 18 19 19 20 20 20 21 21 22 22 23 24 24 23 21 20 19 19 19 20 20 21 22 22 22 22 22 22 21 21 20 20 20 21 22 22 22 22 21 21 22 22 23 24 26 27 28 29 29
33 30 27 27 29 32 33 33 33 32 31 29 30 32 32 30 27 25 25 25 26 26 26 25 24 23 22 21 21 20 19 19 19 19 18 19 19 20 20 21 21 21 21 21 22 22 22 23 22 21 19 18 18 18 19 20 20 20 21 22 23 23 23 24 24 23 22 21 20 20 21 22 22 22 21 20 20 20 21 22 23 23 24 26 27
30 28 27 28 30 33 34 33 32 32 32 31 32 33 33 29 26 24 24 24 24 24 24 24 23 22 22 22 21 21 20 20 20 20 20 20 20 20 21 21 22 22 22 21 22 22 22 21 20 19 18 17 18 18 19 19 19 20 21 22 23 24 25 26 27 26 25 23 22 21 20 21 22 22 22 20 19 19 19 20 21 21 21 22 24
26 27 27 28 30 32 33 32 32 32 32 32 32 33 32 29 25 23 23 24 23 23 23 22 22 23 23 23 22 21 21 21 21 21 21 21 21 21 22 22 22 22 21 21 21 21 21 21 20 19 18 17 17 18 18 18 18 19 20 21 23 24 25 26 27 28 28 26 24 22 21 21 21 22 22 21 20 18 17 18 19 20 20 20 20
25 26 27 27 29 31 33 32 32 32 32 32 33 34 33 28 24 23 24 23 23 22 22 22 23 23 23 23 22 22 22 22 22 22 21 21 21 22 22 22 22 22 22 21 20 20 21 21 20 20 19 19 19 19 19 18 18 19 20 22 24 25 26 26 27 28 29 28 25 23 22 21 21 22 22 22 21 19 17 17 17 18 18 19 18
25 26 27 28 29 30 31 32 33 33 33 34 34 34 32 28 24 23 23 23 22 22 22 23 23 23 23 23 23 23 23 23 23 22 22 22 22 22 23 23 23 22 22 21 20 20 20 20 20 19 19 20 20 20 19 19 19 19 20 22 23 25 26 26 26 27 28 28 26 24 22 21 21 21 22 22 22 21 19 17 16 16 17 17 18
26 27 28 28 28 28 29 31 33 34 34 34 34 32 29 25 23 22 22 22 22 22 22 22 23 23 23 24 24 24 24 23 23 23 22 22 22 23 23 22 22 22 21 21 20 20 20 20 19 19 20 20 21 20 20 20 19 19 20 21 23 24 25 25 25 26 26 27 26 24 23 21 21 21 22 22 22 22 22 20 18 16 16 16 16
26 27 28 27 26 26 28 31 32 33 33 33 31 28 24 21 20 21 21 22 22 21 21 21 22 23 23 24 24 24 24 24 23 23 23 22 23 23 23 23 22 22 21 20 20 20 20 20 20 20 21 21 21 22 21 20 19 19 20 20 21 21 22 22 23 24 24 25 25 25 24 23 22 22 22 22 22 22 22 21 20 19 17 16 16
Wind_Direction
213 215 219 230 245 256 270 273 269 267 265 264 263 263 265 268 272 276 279 282 283 284 285 285 287 288 288 288 285 282 280 279 282 287 293 301 308 315 319 322 327 329 329 328 328 327 327 328 329 331 331 332 332 332 333 332 330 329 328 327 327 326 326 325 325 325 324 323 321 320 318 315 312 309 306 303 300 297 294 292 289 286 283 280 276
209 213 222 234 248 261 271 273 268 264 262 262 262 263 266 269 273 276 277 279 279 279 280 281 282 282 281 280 277 275 275 278 284 291 299 307 314 319 322 324 328 329 329 330 330 328 328 329 331 332 333 333 333 333 332 330 329 329 329 329 329 328 327 327 326 324 324 323 322 321 319 317 315 312 309 305 302 298 295 292 289 286 284 280 277
212 220 231 240 251 260 268 269 265 261 259 260 261 262 265 267 269 271 271 271 271 274 277 277 277 276 274 273 271 271 275 281 290 299 307 313 318 322 324 326 329 330 330 331 330 329 330 331 332 334 334 334 333 331 330 331 331 331 332 331 330 330 329 328 327 326 325 326 325 324 323 321 319 317 313 310 306 302 298 295 292 289 287 283 279
222 232 241 247 253 260 264 263 261 259 257 258 260 261 263 264 266 267 263 264 267 270 272 271 271 269 267 266 267 271 280 290 298 306 312 316 320 323 326 329 332 332 330 330 330 330 332 333 334 334 334 333 332 332 332 333 334 333 333 333 332 331 331 330 330 330 329 329 329 328 327 325 323 322 319 314 310 307 302 298 295 293 290 287 283
229 239 245 251 256 260 260 258 257 256 254 255 257 260 263 264 262 258 255 259 265 268 267 266 264 262 261 263 269 279 290 298 304 309 314 318 322 326 330 332 333 331 329 330 332 334 335 335 334 333 333 333 334 335 335 335 335 335 334 334 333 333 333 333 334 334 334 333 332 331 330 328 326 325 323 318 314 311 307 302 298 295 292 288 285
231 241 248 252 257 260 258 256 255 252 250 253 257 262 262 256 252 252 254 261 264 263 262 262 259 257 259 266 277 288 296 301 306 310 316 321 326 330 332 333 333 330 329 332 335 337 336 335 334 334 335 336 336 336 337 337 336 336 335 335 334 335 336 337 338 337 337 336 335 333 332 331 329 327 326 322 319 317 313 307 300 297 295 291 285
233 242 250 256 260 264 263 259 253 249 249 253 256 261 256 248 250 254 258 261 260 259 258 257 255 255 262 273 284 292 297 301 308 313 320 326 330 332 333 332 332 330 331 335 337 336 336 337 337 338 338 337 337 338 338 338 338 337 336 336 337 338 339 340 340 339 339 338 337 335 333 333 331 328 326 324 321 321 319 315 309 302 300 298 293
236 243 254 264 269 273 273 265 253 247 247 249 253 256 251 248 250 253 257 257 256 257 254 250 251 257 268 280 287 292 297 304 312 318 325 330 331 332 332 332 334 333 334 337 337 337 338 339 340 341 340 339 339 340 340 340 339 338 338 338 340 342 343 343 342 341 340 340 339 337 334 333 331 328 326 325 323 323 324 323 320 315 309 304 301
240 248 259 271 276 279 278 265 251 244 241 243 248 249 245 244 247 250 253 253 251 250 247 246 252 262 274 282 286 292 300 308 316 324 329 331 331 331 332 334 337 337 337 338 339 339 340 341 343 342 342 342 342 342 342 340 339 339 340 342 343 345 345 345 344 343 342 341 340 337 335 333 332 329 328 328 327 326 326 326 324 323 319 311 307
244 251 262 272 278 281 275 257 244 238 236 239 243 241 239 240 244 249 251 250 246 241 240 246 256 268 275 279 286 296 305 314 322 329 330 330 331 333 334 338 341 341 340 339 340 342 343 343 343 343 343 344 344 343 342 341 341 343 344 346 347 347 346 346 345 344 342 341 341 339 336 334 334 332 330 329 328 327 328 328 326 325 323 316 311
247 253 262 273 279 280 267 246 236 233 233 238 237 234 235 238 244 249 247 242 239 236 240 251 261 268 271 277 290 301 311 321 327 330 329 329 333 336 338 341 344 343 341 340 341 343 344 343 343 343 344 344 344 343 342 343 345 347 349 349 349 348 348 347 346 344 343 342 341 340 338 336 335 334 331 329 328 327 327 327 326 324 323 320 316
248 255 265 274 279 275 257 237 230 229 230 234 233 230 233 237 242 244 238 233 232 235 244 254 259 263 270 282 298 309 318 326 327 328 329 332 337 340 341 342 344 344 343 342 343 344 343 343 344 344 345 345 345 343 344 347 350 350 351 351 350 350 349 347 345 344 343 342 342 342 340 338 337 335 332 329 328 327 325 324 324 323 322 320 319
249 256 265 272 276 270 250 230 225 225 227 229 229 229 232 234 237 237 232 229 233 240 248 251 253 261 274 291 305 315 322 324 325 328 332 337 341 343 342 343 345 346 344 344 345 344 343 345 346 346 345 345 345 345 348 352 353 352 352 352 351 351 350 348 346 345 343 343 343 344 343 340 337 335 332 329 326 325 323 323 324 322 321 320 319
246 251 260 268 272 265 243 225 220 221 223 226 227 230 232 229 230 232 229 228 234 241 243 243 249 263 281 297 308 316 320 322 327 332 336 340 343 344 344 346 347 346 347 347 347 346 346 347 348 347 346 345 346 349 352 353 353 353 353 353 353 353 351 350 348 346 346 346 345 345 344 340 337 333 330 328 325 324 323 323 323 322 320 320 320
238 243 256 266 269 260 238 221 217 218 220 224 228 231 230 225 224 228 228 229 231 232 232 237 251 269 286 300 309 315 321 326 331 335 339 344 346 347 348 349 349 349 350 351 350 349 349 350 350 349 348 347 350 352 353 353 352 353 354 355 355 354 353 351 350 350 350 349 347 346 344 341 338 333 329 327 325 324 323 322 322 321 320 321 322
233 242 258 265 265 254 233 219 216 216 218 225 229 231 228 222 220 224 227 227 224 222 227 238 256 274 289 301 309 315 324 329 332 337 344 348 349 350 351 351 351 353 355 355 353 351 351 353 352 351 350 351 353 353 353 352 352 353 355 356 356 356 355 354 353 353 352 350 348 348 346 343 338 333 329 327 325 324 323 322 323 324 323 323 324
235 246 255 260 261 250 228 218 215 214 218 226 229 229 226 221 219 222 224 220 215 219 230 243 260 276 288 298 307 317 325 329 334 341 348 352 353 353 354 355 356 358 360 357 354 354 355 355 354 353 353 354 353 353 352 352 352 354 357 357 357 357 357 357 357 355 353 351 351 350 348 345 341 334 330 329 328 326 325 325 327 328 327 325 325
239 245 247 253 259 248 227 218 213 212 219 227 229 227 225 221 217 217 216 213 213 221 233 246 262 273 282 293 304 315 323 328 338 348 354 358 358 357 359 2 3 4 3 359 358 359 359 358 356 356 356 355 353 353 352 352 354 356 357 358 358 358 359 360 359 356 354 353 353 353 352 349 345 338 334 334 333 331 328 328 331 331 329 327 327
240 238 238 248 258 250 230 218 211 212 220 226 227 226 224 220 215 210 208 210 214 221 234 246 256 263 271 282 296 309 321 332 345 355 1 5 5 6 9 11 11 9 5 2 3 4 2 1 359 358 356 355 354 354 353 354 356 358 358 359 359 0 2 1 359 356 355 354 355 356 355 353 350 344 340 340 339 335 333 334 336 334 331 330 329
233 227 230 243 256 255 236 218 210 215 222 226 227 227 223 216 209 204 205 211 216 221 232 241 242 247 257 265 277 297 316 334 352 7 14 14 14 19 22 21 17 13 8 7 8 8 6 3 0 358 357 356 355 355 354 355 358 360 360 0 1 2 3 2 359 356 356 355 356 357 358 356 354 349 347 346 344 341 341 343 341 336 332 332 332
225 223 231 242 255 259 239 218 211 217 222 225 228 227 220 210 203 201 205 211 215 221 227 230 230 235 242 245 251 256 261 312 19 35 33 28 26 29 29 26 21 16 13 12 13 12 8 4 0 359 358 357 357 356 355 357 359 1 1 3 4 3 3 2 0 358 357 357 357 359 360 359 357 355 352 352 351 350 350 349 344 339 336 335 335
221 229 239 246 256 259 237 217 214 218 221 225 228 223 214 204 199 202 207 209 213 219 221 222 225 225 221 217 217 215 208 175 71 58 47 37 34 34 31 27 22 17 15 15 15 13 8 5 3 1 359 358 358 357 356 358 360 1 2 4 5 5 3 2 2 0 360 359 359 1 2 1 360 359 357 356 359 360 358 353 347 343 342 340 339
228 240 245 249 258 257 234 219 217 220 222 227 227 218 208 202 201 203 206 207 212 215 215 218 219 215 207 199 200 203 193 150 92 68 52 38 36 35 30 26 21 17 14 14 14 12 8 6 4 3 1 360 359 357 357 358 0 1 2 4 5 6 5 4 4 3 2 2 2 4 5 4 2 1 360 0 4 6 3 356 351 349 350 350 349
240 242 245 251 257 252 232 220 217 220 223 227 224 212 202 201 204 206 206 208 210 209 209 212 210 204 200 195 195 197 184 143 95 73 56 37 34 33 26 23 20 14 10 11 13 11 8 5 4 4 3 0 359 358 357 358 360 0 2 3 5 6 5 5 6 7 5 4 5 6 8 7 5 3 3 3 6 10 9 2 357 358 1 359 357
238 240 245 251 254 248 230 218 216 220 223 225 219 208 200 202 206 207 208 209 208 207 208 208 202 197 195 192 191 189 174 137 97 76 52 31 30 27 21 17 15 10 6 8 10 9 5 4 3 4 3 1 360 359 358 358 360 0 1 3 4 5 6 7 8 9 9 8 7 7 9 9 8 6 5 4 5 12 15 10 5 6 8 6 2
237 242 247 250 254 247 228 216 215 219 221 220 213 204 201 204 206 206 208 207 206 206 206 204 199 197 195 192 189 183 169 139 105 81 35 23 24 20 14 11 9 5 1 3 7 6 3 1 2 1 1 360 360 0 360 359 360 360 0 2 4 5 6 7 8 10 11 10 9 9 9 10 10 8 7 6 8 13 18 18 13 10 9 9 8
239 243 246 252 257 246 224 214 215 218 218 216 209 203 202 204 204 204 205 204 203 203 201 198 198 199 196 191 186 180 169 148 129 107 7 16 16 11 6 5 3 1 359 0 5 4 359 357 358 359 359 359 359 360 359 358 359 360 0 2 5 6 6 8 9 10 12 13 12 11 10 10 12 11 10 9 11 15 20 23 22 18 12 11 15
237 240 246 254 253 236 218 212 214 216 216 214 209 204 204 204 204 203 202 201 200 200 197 195 197 198 195 189 185 180 172 166 192 262 352 10 9 5 3 2 0 359 357 357 1 1 356 354 355 357 357 357 357 358 359 358 359 0 1 3 5 6 6 7 9 11 12 14 14 12 11 11 13 14 13 12 13 16 20 25 28 28 23 19 20
237 242 250 254 243 224 213 212 213 213 214 213 209 206 206 206 204 202 200 198 196 195 195 196 197 197 194 188 186 184 180 187 221 272 350 4 1 1 1 0 360 358 356 354 356 357 354 351 352 353 353 352 353 355 357 359 1 1 1 3 5 6 5 7 9 11 12 13 14 15 13 12 13 15 16 15 15 18 21 24 29 34 35 32 30
239 244 251 252 236 218 211 212 213 211 212 213 211 208 208 207 206 203 200 198 196 195 197 198 196 194 192 189 188 190 192 206 230 274 346 355 357 1 1 358 357 356 355 353 353 355 352 349 349 351 351 350 352 354 356 359 2 3 2 3 5 6 5 6 9 11 12 12 14 16 16 13 13 15 17 17 17 19 22 24 27 32 37 40 40
241 249 258 256 233 216 211 212 213 211 212 213 212 211 210 210 207 203 199 199 201 202 202 199 195 193 193 193 193 196 204 216 231 263 330 344 350 356 358 355 352 351 351 349 350 352 352 348 347 349 350 350 351 353 355 357 359 2 3 3 4 5 5 6 8 10 11 12 13 15 17 16 14 14 17 18 17 19 22 25 28 30 34 39 43
248 258 261 254 229 214 211 213 214 213 215 214 211 210 212 212 209 204 203 206 206 205 204 200 196 194 196 196 197 202 211 221 227 246 305 326 337 343 348 348 346 345 346 345 346 350 350 347 346 347 349 350 350 352 354 355 356 359 1 2 4 5 5 6 7 8 9 11 13 14 17 18 17 15 16 18 18 19 21 24 27 30 32 36 41
255 256 256 251 228 214 212 214 214 216 218 216 212 211 211 210 207 205 210 214 211 207 205 203 200 198 199 200 202 207 214 222 227 242 284 305 320 331 336 339 340 341 343 343 344 346 347 345 344 345 347 349 349 350 352 353 354 357 358 360 2 4 5 5 6 7 8 10 12 13 15 18 19 18 17 18 19 19 20 22 25 29 31 33 37
252 254 260 251 226 213 213 216 216 216 217 215 212 212 210 208 208 210 214 216 214 210 209 207 204 203 203 205 208 213 219 226 233 247 274 292 309 322 328 333 337 339 340 341 342 344 344 342 341 343 345 347 347 348 349 350 352 354 356 357 359 2 4 4 4 6 8 9 10 12 14 16 18 19 19 19 20 21 21 22 23 27 30 31 33
247 255 262 246 222 211 213 217 216 216 216 213 211 211 209 209 215 219 214 213 214 213 211 210 209 209 209 209 213 219 223 228 237 251 270 288 305 317 324 329 333 335 338 340 341 342 342 340 338 340 342 343 344 346 347 347 349 351 353 355 356 358 1 3 3 5 8 9 10 11 13 15 17 19 19 20 20 21 22 22 22 25 28 31 32
244 256 261 243 222 212 212 216 217 217 214 211 210 211 209 211 220 222 215 212 214 213 211 212 212 212 214 215 218 223 228 232 241 254 269 287 303 314 321 325 328 331 334 338 339 338 337 336 336 336 338 340 341 343 344 345 346 347 349 351 353 355 357 360 2 4 6 8 9 10 12 14 16 18 19 20 21 22 23 23 23 23 26 29 32
247 261 262 243 223 214 212 214 216 215 212 209 209 211 212 214 220 221 217 215 216 215 214 215 215 215 218 221 224 228 231 235 245 257 270 286 300 310 317 320 323 328 332 334 334 333 332 332 332 333 335 337 338 340 341 342 343 344 345 346 349 352 353 356 359 1 3 6 8 10 11 13 14 16 17 19 20 21 23 24 24 23 24 26 30
248 263 264 242 224 217 215 214 213 211 209 207 209 212 215 218 221 222 219 217 217 218 217 217 217 218 221 225 227 231 234 239 248 260 271 284 296 306 313 318 321 326 329 329 329 328 328 328 328 329 331 333 335 336 338 339 339 341 341 342 345 348 350 352 355 357 359 2 5 8 10 11 12 13 15 17 18 20 21 23 25 25 24 24 26
240 254 258 242 225 219 218 218 215 209 206 207 211 215 218 220 223 223 220 218 219 220 220 220 220 221 224 229 231 231 235 243 251 260 271 283 293 303 310 314 317 321 323 323 324 324 325 325 325 325 327 328 329 331 334 335 336 338 339 339 341 344 346 347 349 350 354 357 1 4 7 9 10 11 12 13 15 18 19 20 22 24 25 24 25
234 241 246 236 223 218 219 220 217 210 206 209 214 217 219 222 225 224 222 221 222 222 222 224 224 224 227 233 234 231 235 244 253 262 274 286 295 302 307 310 312 316 318 319 320 321 322 322 322 322 323 323 322 324 327 330 332 334 336 336 337 339 342 343 344 345 347 351 355 359 2 5 7 8 9 10 12 14 16 17 19 22 24 25 25
233 235 237 230 220 215 216 217 214 210 210 214 217 218 220 223 225 224 223 224 225 224 225 227 227 227 230 234 236 236 239 245 253 264 276 286 293 299 303 307 311 314 315 316 317 318 319 319 319 319 320 319 318 317 319 321 324 327 330 332 333 335 338 339 340 340 341 343 347 350 354 358 2 4 6 7 8 10 12 14 16 19 22 24 24
233 233 233 227 216 212 213 214 211 211 214 218 219 218 218 220 224 225 227 227 227 226 227 228 229 231 233 236 239 242 244 247 254 263 271 279 286 294 299 305 309 311 312 314 315 315 316 316 317 317 316 314 313 312 311 313 316 319 321 324 326 328 331 334 335 336 336 337 339 341 345 350 354 358 1 3 4 6 8 10 12 14 18 21 23
240 237 236 229 217 211 212 212 211 213 217 220 220 218 217 218 222 225 228 231 230 229 229 230 231 233 236 238 240 243 245 248 253 259 265 273 282 290 297 302 306 307 309 311 312 313 314 314 313 313 312 310 310 310 309 310 314 316 318 319 321 322 324 326 328 329 331 333 334 335 336 340 345 349 354 358 360 2 4 5 7 9 12 17 20
247 244 244 241 228 215 211 211 213 215 217 218 219 219 218 218 220 225 230 233 232 230 230 232 231 232 235 237 240 242 245 249 254 260 266 275 284 291 297 301 303 304 306 308 309 310 309 309 308 309 309 308 309 309 309 310 311 313 315 318 319 319 319 319 319 321 323 326 329 330 331 333 336 340 345 350 354 357 359 1 3 5 7 10 14
253 248 248 246 234 218 211 212 214 213 212 214 216 217 218 219 223 229 233 234 232 230 230 232 233 235 237 239 241 245 248 252 257 264 271 279 287 292 296 299 300 302 304 305 305 303 302 302 304 307 308 307 307 308 308 308 308 310 313 315 316 316 315 314 313 315 317 319 322 324 327 329 331 334 338 342 347 351 354 356 358 0 3 4 6
257 251 251 251 239 223 215 213 211 209 209 212 214 215 217 221 227 234 237 237 235 234 233 234 237 239 241 242 245 248 252 256 262 267 274 280 286 290 294 296 297 299 300 300 299 298 298 299 302 306 308 308 308 308 308 308 309 310 311 313 313 314 313 311 310 310 312 314 316 319 322 325 327 329 332 335 339 344 348 351 352 353 357 0 1
255 251 253 253 242 227 218 212 207 205 209 213 215 215 218 223 231 237 239 240 239 238 237 238 240 242 244 246 249 252 256 260 264 269 275 281 285 289 292 293 294 295 295 294 294 296 297 298 302 305 307 308 308 308 310 310 310 312 314 315 316 315 314 313 311 310 310 311 313 314 317 320 322 324 326 328 330 334 340 344 345 345 348 353 357
253 252 254 251 241 229 220 210 203 204 210 215 216 216 220 226 235 240 241 242 242 241 241 241 243 245 247 249 252 254 257 261 265 271 277 281 284 286 288 289 290 291 291 292 294 295 296 298 302 306 308 310 311 312 313 313 313 314 316 318 318 317 316 315 314 312 311 311 312 312 313 315 318 319 320 322 323 325 329 334 338 339 340 344 349
249 252 254 251 242 233 222 210 203 205 211 215 216 218 223 231 239 242 241 241 243 245 245 246 247 249 251 252 253 256 258 262 267 272 276 278 281 283 285 287 289 290 292 294 295 295 296 299 303 307 310 312 312 312 313 313 314 315 316 316 315 314 313 313 312 311 311 312 312 311 310 310 313 316 316 316 317 318 319 322 326 331 334 336 339
247 251 253 251 245 234 221 210 206 208 212 214 217 220 226 234 240 240 239 240 243 246 249 250 251 252 254 255 256 259 262 265 269 272 274 277 279 281 283 285 287 289 290 292 293 295 298 301 304 307 310 310 311 310 309 310 312 314 315 316 315 314 312 311 309 307 307 310 312 311 309 307 309 311 312 312 312 311 312 313 315 318 323 328 331
248 252 252 248 238 227 217 211 209 211 213 215 218 222 229 237 242 241 239 239 241 243 246 248 250 252 254 257 259 261 264 266 269 271 273 276 278 281 283 285 287 288 290 292 295 299 302 303 305 307 307 307 307 307 305 305 308 312 314 317 321 321 319 315 311 308 307 309 312 312 310 308 307 307 308 308 307 306 305 306 306 308 311 315 320
Height
3148 3149 3150 3151 3152 3152 3152 3152 3152 3152 3152 3152 3151 3151 3151 3150 3150 3149 3149 3149 3149 3148 3148 3148 3148 3147 3147 3147 3147 3147 3146 3146 3145 3144 3143 3142 3140 3139 3136 3134 3133 3131 3129 3128 3126 3124 3122 3120 3118 3116 3113 3111 3109 3106 3104 3101 3099 3096 3093 3090 3087 3083 3080 3076 3072 3070 3068 3064 3060 3058 3056 3053 3051 3047 3044 3043 3041 3038 3035 3033 3032 3029 3028 3026 3025
3147 3148 3149 3150 3150 3150 3150 3150 3150 3150 3150 3150 3150 3149 3148 3148 3148 3148 3148 3147 3147 3147 3147 3147 3146 3146 3146 3146 3146 3146 3145 3145 3144 3143 3142 3140 3139 3137 3135 3133 3131 3130 3128 3127 3125 3123 3120 3118 3116 3114 3112 3109 3107 3104 3102 3100 3097 3094 3091 3088 3085 3081 3077 3073 3070 3066 3063 3060 3056 3053 3050 3047 3044 3041 3038 3035 3033 3032 3029 3027 3025 3023 3021 3019 3018
3146 3147 3148 3148 3149 3149 3149 3149 3149 3149 3149 3148 3148 3147 3146 3146 3146 3146 3146 3146 3146 3146 3146 3146 3145 3145 3145 3145 3145 3145 3144 3143 3142 3141 3140 3138 3137 3135 3133 3132 3130 3128 3127 3125 3123 3121 3119 3117 3115 3112 3110 3108 3105 3103 3100 3098 3095 3092 3089 3086 3082 3079 3075 3071 3067 3062 3059 3056 3051 3047 3044 3041 3037 3034 3031 3028 3026 3024 3022 3020 3018 3016 3014 3012 3010
3144 3145 3146 3146 3147 3147 3147 3147 3147 3147 3147 3146 3146 3145 3145 3145 3145 3145 3145 3144 3144 3144 3145 3144 3144 3144 3144 3144 3144 3143 3143 3142 3141 3139 3138 3136 3135 3133 3132 3130 3128 3127 3125 3124 3122 3120 3118 3115 3113 3111 3109 3106 3104 3102 3099 3096 3093 3090 3087 3083 3080 3076 3072 3068 3064 3059 3055 3051 3047 3043 3038 3035 3031 3027 3024 3021 3019 3018 3015 3013 3011 3009 3008 3006 3004
3142 3143 3144 3144 3145 3145 3145 3145 3145 3145 3144 3144 3143 3143 3143 3143 3143 3143 3143 3143 3143 3143 3143 3143 3143 3143 3143 3143 3142 3142 3141 3140 3139 3138 3136 3135 3133 3132 3130 3129 3127 3125 3123 3122 3120 3118 3116 3114 3112 3109 3107 3105 3103 3100 3097 3094 3091 3088 3085 3081 3078 3074 3070 3066 3061 3057 3052 3047 3043 3039 3035 3030 3027 3023 3018 3013 3011 3010 3009 3008 3006 3003 3001 3000 2998
3140 3141 3142 3142 3143 3143 3143 3143 3143 3142 3142 3142 3141 3141 3141 3141 3142 3142 3142 3142 3142 3142 3142 3142 3142 3142 3142 3141 3141 3140 3140 3139 3137 3136 3135 3133 3132 3130 3129 3127 3125 3124 3122 3120 3119 3117 3115 3113 3111 3108 3105 3103 3101 3098 3095 3092 3089 3086 3083 3079 3076 3072 3067 3063 3059 3054 3050 3045 3040 3035 3031 3027 3022 3019 3015 3009 3004 3001 3000 3000 3000 2999 2995 2993 2992
3138 3139 3140 3141 3141 3141 3140 3140 3140 3140 3140 3139 3139 3139 3140 3140 3140 3140 3140 3140 3140 3140 3140 3140 3140 3140 3140 3140 3140 3139 3138 3137 3136 3135 3133 3132 3130 3129 3127 3126 3124 3122 3120 3119 3117 3115 3114 3111 3109 3107 3104 3101 3098 3096 3093 3090 3087 3084 3080 3077 3073 3069 3065 3060 3056 3051 3047 3042 3037 3032 3028 3024 3019 3014 3011 3006 3001 2997 2993 2990 2990 2991 2990 2987 2985
3136 3137 3138 3138 3138 3138 3138 3137 3137 3137 3137 3137 3137 3137 3138 3138 3138 3138 3138 3139 3139 3139 3139 3139 3139 3139 3139 3139 3138 3137 3137 3136 3134 3133 3132 3130 3129 3127 3126 3124 3123 3121 3119 3117 3116 3114 3112 3110 3107 3105 3102 3099 3097 3094 3091 3088 3085 3082 3078 3074 3070 3066 3062 3057 3053 3048 3043 3039 3035 3029 3024 3020 3016 3011 3007 3002 2997 2993 2989 2984 2980 2980 2981 2980 2977
3134 3135 3135 3135 3135 3135 3135 3135 3135 3135 3135 3135 3135 3136 3136 3137 3137 3137 3137 3137 3137 3137 3138 3138 3138 3138 3138 3137 3137 3136 3135 3134 3133 3131 3130 3129 3127 3126 3124 3123 3122 3120 3117 3116 3114 3112 3110 3108 3106 3103 3101 3098 3095 3092 3089 3086 3083 3079 3076 3072 3067 3063 3059 3055 3050 3045 3040 3036 3032 3027 3021 3017 3013 3007 3002 2997 2992 2987 2983 2979 2974 2972 2971 2970 2969
3131 3132 3132 3133 3133 3133 3132 3132 3133 3133 3133 3133 3134 3134 3135 3135 3135 3135 3135 3136 3136 3136 3136 3137 3137 3136 3136 3136 3135 3135 3134 3132 3131 3130 3129 3127 3126 3125 3123 3122 3120 3118 3117 3115 3113 3111 3109 3106 3105 3102 3100 3098 3095 3092 3089 3086 3082 3078 3074 3069 3065 3061 3056 3052 3048 3043 3038 3033 3029 3024 3018 3013 3009 3004 2998 2993 2988 2983 2978 2973 2968 2965 2962 2959 2959
3129 3129 3129 3130 3130 3130 3130 3130 3130 3131 3131 3131 3132 3133 3133 3134 3133 3133 3134 3135 3135 3135 3135 3135 3135 3135 3135 3134 3134 3133 3132 3131 3130 3129 3127 3126 3125 3123 3122 3120 3119 3118 3116 3114 3112 3110 3108 3106 3104 3102 3099 3097 3094 3092 3089 3085 3081 3077 3073 3069 3064 3060 3055 3050 3046 3041 3036 3031 3027 3022 3016 3010 3006 3002 2995 2990 2984 2979 2974 2969 2964 2959 2956 2951 2948
3126 3126 3126 3127 3128 3128 3128 3128 3128 3129 3129 3130 3130 3131 3132 3132 3132 3132 3133 3133 3133 3134 3134 3134 3134 3134 3133 3133 3132 3131 3130 3129 3128 3127 3126 3125 3123 3122 3121 3119 3118 3117 3115 3113 3111 3109 3107 3105 3103 3101 3098 3096 3093 3091 3088 3084 3080 3076 3072 3068 3064 3060 3055 3050 3045 3040 3035 3030 3026 3021 3015 3008 3004 2999 2993 2986 2980 2975 2971 2966 2961 2956 2950 2946 2941
3123 3123 3124 3125 3125 3126 3126 3126 3126 3127 3127 3128 3129 3129 3130 3130 3130 3131 3131 3132 3132 3132 3132 3132 3132 3132 3132 3131 3131 3130 3129 3128 3127 3126 3125 3124 3122 3121 3120 3119 3117 3116 3114 3112 3110 3108 3106 3104 3102 3099 3097 3095 3092 3090 3086 3083 3079 3076 3072 3068 3064 3060 3056 3051 3046 3041 3036 3030 3024 3020 3014 3007 3002 2997 2992 2985 2978 2972 2966 2961 2957 2951 2945 2941 2937
3120 3121 3122 3123 3123 3123 3123 3123 3124 3124 3125 3126 3127 3128 3128 3129 3129 3129 3130 3130 3130 3130 3131 3131 3131 3131 3131 3130 3129 3128 3128 3127 3126 3125 3124 3123 3122 3121 3119 3118 3116 3115 3113 3111 3110 3108 3106 3103 3101 3098 3096 3094 3091 3088 3084 3081 3078 3075 3071 3067 3064 3060 3055 3051 3047 3042 3037 3030 3024 3019 3014 3008 3002 2996 2991 2985 2978 2970 2963 2956 2951 2945 2939 2936 2933
3117 3118 3119 3120 3121 3121 3121 3121 3121 3122 3123 3124 3125 3126 3127 3127 3127 3127 3128 3128 3129 3129 3129 3130 3130 3130 3129 3129 3128 3127 3126 3126 3125 3124 3123 3122 3121 3120 3118 3117 3116 3114 3113 3111 3109 3107 3105 3102 3100 3097 3095 3092 3089 3085 3082 3079 3076 3073 3070 3067 3063 3059 3055 3050 3046 3040 3035 3030 3024 3019 3013 3008 3002 2996 2991 2984 2977 2970 2962 2955 2949 2941 2934 2931 2928
3115 3116 3117 3118 3118 3118 3118 3118 3119 3120 3121 3123 3124 3124 3125 3125 3125 3125 3126 3127 3127 3128 3128 3129 3129 3128 3128 3127 3127 3126 3125 3125 3124 3123 3122 3121 3120 3119 3118 3116 3115 3114 3112 3110 3108 3106 3104 3101 3099 3096 3094 3091 3087 3084 3081 3078 3075 3072 3069 3066 3062 3058 3054 3050 3045 3040 3035 3030 3025 3019 3013 3008 3003 2997 2991 2984 2976 2968 2960 2953 2946 2938 2930 2925 2922
3112 3113 3115 3115 3115 3115 3116 3116 3117 3118 3120 3121 3122 3123 3123 3124 3124 3124 3124 3125 3126 3127 3127 3127 3127 3127 3126 3126 3125 3125 3124 3124 3123 3122 3122 3121 3120 3118 3117 3116 3114 3113 3111 3110 3108 3106 3103 3101 3098 3096 3093 3089 3086 3084 3081 3078 3074 3071 3068 3065 3061 3057 3053 3049 3045 3040 3036 3031 3026 3020 3014 3008 3003 2997 2991 2984 2975 2966 2956 2947 2939 2932 2926 2920 2916
3110 3111 3112 3113 3113 3113 3113 3114 3115 3116 3118 3119 3120 3121 3122 3122 3122 3123 3123 3124 3125 3126 3126 3126 3126 3125 3125 3125 3124 3124 3123 3123 3122 3122 3121 3120 3119 3117 3117 3115 3114 3112 3111 3109 3107 3105 3102 3100 3097 3095 3092 3089 3086 3083 3080 3077 3073 3070 3066 3063 3059 3055 3051 3046 3042 3038 3034 3030 3025 3020 3014 3007 3001 2995 2989 2982 2974 2964 2954 2944 2936 2928 2922 2917 2912
3107 3108 3109 3110 3110 3111 3111 3112 3113 3114 3116 3117 3119 3120 3120 3120 3120 3121 3122 3123 3124 3124 3125 3125 3124 3124 3124 3124 3123 3123 3123 3122 3122 3121 3120 3119 3118 3117 3116 3115 3113 3112 3110 3108 3106 3104 3101 3099 3097 3094 3091 3089 3086 3083 3079 3076 3072 3069 3065 3061 3058 3053 3049 3044 3039 3035 3031 3027 3022 3017 3011 3005 2999 2993 2987 2980 2972 2963 2953 2943 2934 2926 2919 2914 2909
3104 3105 3106 3107 3108 3109 3109 3110 3111 3112 3114 3116 3117 3118 3118 3118 3119 3120 3121 3122 3123 3123 3123 3123 3123 3123 3123 3123 3122 3122 3122 3122 3121 3120 3119 3118 3118 3117 3115 3114 3113 3111 3110 3108 3105 3103 3101 3099 3097 3094 3091 3088 3085 3082 3079 3076 3072 3068 3064 3060 3056 3051 3047 3043 3039 3034 3030 3025 3020 3014 3009 3003 2997 2991 2984 2978 2970 2960 2951 2941 2932 2924 2917 2911 2908
3101 3102 3103 3104 3105 3106 3107 3108 3108 3110 3112 3114 3115 3116 3116 3116 3117 3119 3120 3121 3121 3122 3122 3122 3122 3122 3122 3122 3122 3122 3121 3121 3120 3119 3119 3118 3117 3116 3115 3114 3113 3111 3109 3107 3105 3103 3101 3099 3097 3094 3091 3088 3085 3082 3079 3075 3072 3068 3064 3060 3055 3051 3048 3044 3040 3035 3030 3025 3019 3013 3007 3001 2995 2989 2982 2976 2967 2957 2947 2938 2931 2924 2917 2910 2905
3099 3100 3101 3102 3103 3104 3105 3105 3106 3107 3109 3111 3113 3114 3114 3115 3116 3117 3118 3119 3120 3120 3121 3121 3121 3121 3121 3121 3121 3121 3121 3120 3119 3119 3118 3118 3117 3116 3114 3113 3112 3111 3109 3107 3105 3103 3102 3099 3097 3094 3091 3088 3085 3082 3079 3075 3072 3068 3065 3060 3057 3053 3049 3045 3040 3035 3030 3025 3019 3013 3006 2999 2993 2986 2980 2973 2965 2954 2944 2937 2929 2923 2917 2910 2905
3096 3097 3099 3100 3101 3101 3102 3103 3104 3105 3107 3109 3111 3112 3112 3113 3114 3116 3117 3118 3119 3119 3119 3120 3120 3120 3120 3120 3120 3120 3120 3119 3118 3118 3118 3118 3117 3115 3114 3113 3112 3110 3109 3107 3105 3103 3101 3099 3096 3093 3090 3087 3084 3081 3078 3075 3072 3068 3065 3061 3057 3053 3049 3045 3041 3035 3030 3024 3018 3012 3005 2998 2991 2984 2978 2971 2963 2954 2945 2937 2929 2922 2916 2911 2907
3094 3095 3097 3098 3098 3099 3099 3100 3102 3103 3105 3107 3108 3110 3111 3112 3113 3114 3115 3116 3117 3117 3118 3118 3119 3119 3119 3119 3120 3120 3119 3118 3118 3117 3117 3117 3116 3114 3113 3112 3111 3110 3108 3107 3105 3103 3101 3099 3096 3093 3090 3087 3084 3081 3078 3075 3072 3068 3065 3061 3057 3053 3049 3045 3040 3035 3029 3023 3017 3011 3005 2998 2991 2984 2977 2971 2964 2957 2949 2940 2931 2923 2918 2913 2908
3092 3093 3094 3095 3096 3096 3097 3098 3099 3101 3103 3105 3107 3108 3109 3110 3111 3113 3114 3114 3115 3116 3116 3117 3117 3118 3118 3119 3119 3119 3118 3117 3117 3117 3117 3116 3115 3114 3113 3112 3110 3109 3108 3106 3104 3102 3100 3098 3095 3093 3090 3088 3085 3082 3078 3075 3072 3068 3065 3061 3057 3053 3049 3044 3040 3035 3029 3023 3017 3011 3006 3000 2993 2987 2981 2975 2968 2959 2951 2941 2932 2925 2920 2916 2911
3089 3090 3091 3092 3093 3093 3094 3095 3097 3099 3101 3103 3105 3106 3108 3109 3110 3111 3112 3113 3114 3114 3115 3115 3116 3117 3117 3118 3118 3117 3117 3116 3116 3116 3116 3115 3114 3113 3112 3111 3110 3108 3107 3105 3103 3101 3099 3097 3095 3093 3090 3088 3085 3082 3078 3075 3072 3068 3065 3061 3057 3053 3048 3044 3039 3034 3029 3024 3018 3013 3007 3002 2997 2991 2985 2978 2969 2960 2951 2942 2934 2927 2922 2918 2913
3086 3088 3088 3089 3090 3090 3091 3093 3095 3097 3099 3101 3102 3104 3105 3107 3108 3109 3111 3112 3112 3113 3114 3114 3115 3116 3116 3116 3116 3116 3116 3115 3115 3115 3115 3114 3113 3112 3111 3110 3109 3107 3106 3104 3102 3100 3099 3097 3095 3092 3090 3087 3084 3081 3078 3075 3072 3069 3065 3061 3057 3053 3049 3044 3040 3035 3030 3025 3020 3015 3010 3005 3000 2993 2986 2978 2971 2963 2954 2946 2937 2929 2924 2919 2915
3083 3085 3085 3086 3087 3087 3089 3091 3093 3095 3097 3099 3100 3101 3103 3105 3106 3108 3109 3110 3111 3112 3113 3114 3115 3115 3115 3115 3115 3115 3114 3114 3114 3115 3114 3112 3112 3111 3110 3109 3108 3106 3105 3103 3101 3100 3098 3096 3094 3092 3090 3088 3085 3083 3080 3076 3072 3069 3065 3061 3057 3054 3050 3046 3041 3036 3031 3027 3022 3017 3012 3007 3001 2994 2988 2981 2973 2965 2958 2951 2943 2935 2928 2923 2918
3081 3082 3082 3083 3084 3085 3086 3088 3090 3093 3095 3096 3098 3099 3101 3103 3104 3106 3107 3109 3110 3111 3112 3113 3114 3114 3114 3114 3114 3113 3113 3113 3114 3113 3112 3111 3111 3110 3109 3108 3107 3106 3104 3103 3101 3099 3098 3096 3094 3092 3090 3088 3086 3083 3080 3077 3073 3069 3065 3062 3058 3054 3050 3046 3041 3036 3031 3027 3023 3017 3012 3007 3002 2996 2990 2984 2976 2969 2962 2956 2949 2941 2934 2928 2922
3078 3079 3080 3081 3082 3083 3084 3086 3088 3090 3092 3094 3095 3097 3099 3101 3102 3104 3105 3107 3108 3109 3110 3111 3112 3112 3112 3112 3112 3112 3112 3113 3113 3112 3111 3110 3110 3109 3108 3107 3106 3105 3104 3102 3101 3099 3097 3095 3093 3091 3089 3087 3085 3082 3079 3076 3072 3069 3065 3061 3057 3054 3050 3046 3041 3037 3032 3028 3023 3019 3013 3008 3003 2998 2992 2986 2980 2973 2967 2960 2954 2947 2940 2933 2927
3075 3077 3077 3078 3079 3080 3082 3084 3086 3088 3090 3091 3093 3095 3097 3099 3101 3102 3103 3105 3106 3107 3108 3109 3110 3110 3110 3111 3111 3111 3111 3111 3111 3110 3110 3109 3109 3108 3107 3106 3105 3104 3103 3101 3100 3098 3096 3094 3092 3090 3088 3085 3083 3080 3077 3074 3071 3068 3065 3061 3057 3054 3050 3046 3041 3037 3033 3029 3025 3020 3015 3010 3005 3000 2994 2989 2984 2978 2972 2965 2959 2953 2946 2939 2933
3073 3075 3076 3076 3077 3078 3080 3082 3084 3085 3087 3089 3091 3093 3096 3098 3099 3101 3102 3103 3105 3106 3106 3107 3108 3108 3109 3109 3109 3110 3110 3110 3110 3109 3109 3108 3108 3107 3106 3105 3104 3103 3102 3100 3099 3097 3095 3093 3091 3089 3087 3084 3082 3079 3076 3073 3070 3067 3064 3061 3058 3054 3050 3046 3042 3038 3034 3030 3026 3022 3017 3012 3007 3002 2997 2992 2987 2982 2976 2969 2963 2958 2952 2946 2940
3071 3072 3073 3074 3074 3075 3077 3079 3081 3083 3085 3087 3089 3092 3094 3096 3098 3099 3101 3102 3103 3104 3105 3105 3106 3107 3107 3108 3108 3108 3109 3109 3108 3108 3107 3107 3107 3106 3105 3104 3103 3102 3101 3099 3097 3096 3094 3092 3090 3088 3085 3083 3080 3078 3075 3073 3070 3067 3064 3061 3058 3054 3051 3047 3044 3040 3036 3032 3028 3023 3019 3014 3010 3006 3001 2995 2990 2985 2979 2974 2968 2962 2957 2951 2946
3069 3069 3070 3071 3071 3073 3074 3076 3079 3081 3083 3085 3087 3090 3092 3094 3095 3097 3099 3101 3102 3103 3103 3104 3104 3105 3106 3106 3106 3107 3107 3107 3107 3107 3106 3106 3105 3105 3104 3103 3102 3100 3099 3098 3096 3094 3092 3090 3088 3086 3084 3082 3079 3077 3074 3072 3069 3067 3064 3061 3058 3055 3052 3048 3045 3042 3037 3033 3029 3025 3021 3016 3012 3008 3003 2998 2994 2989 2984 2978 2972 2966 2961 2955 2951
3066 3067 3067 3067 3068 3070 3072 3074 3076 3078 3080 3083 3085 3088 3090 3092 3093 3095 3097 3099 3100 3101 3102 3102 3103 3103 3104 3104 3105 3105 3106 3106 3105 3105 3105 3105 3104 3103 3102 3101 3100 3099 3098 3096 3094 3093 3091 3089 3087 3085 3083 3081 3078 3076 3073 3071 3068 3066 3063 3061 3058 3055 3052 3049 3046 3042 3038 3035 3031 3027 3023 3019 3014 3010 3006 3001 2997 2992 2987 2982 2977 2972 2966 2961 2956
3063 3064 3064 3064 3065 3067 3069 3071 3074 3076 3078 3081 3084 3086 3088 3090 3091 3093 3095 3096 3098 3099 3100 3100 3101 3101 3102 3103 3103 3104 3104 3104 3104 3104 3103 3103 3102 3101 3101 3100 3099 3097 3096 3094 3093 3091 3090 3088 3086 3084 3082 3079 3077 3075 3072 3070 3067 3065 3062 3060 3058 3055 3052 3049 3046 3043 3039 3036 3032 3029 3025 3021 3017 3013 3008 3004 3000 2995 2990 2986 2982 2977 2972 2967 2962
3060 3060 3061 3061 3063 3064 3066 3068 3071 3074 3077 3079 3081 3083 3085 3087 3089 3090 3092 3094 3095 3096 3097 3098 3099 3100 3100 3101 3101 3102 3102 3102 3102 3102 3102 3101 3101 3100 3099 3098 3097 3096 3094 3092 3091 3090 3088 3087 3085 3083 3080 3078 3076 3074 3071 3069 3067 3064 3062 3060 3057 3055 3052 3049 3046 3043 3040 3037 3034 3030 3027 3022 3019 3015 3011 3007 3003 2999 2995 2991 2986 2982 2978 2974 2969
3056 3057 3058 3059 3061 3062 3064 3066 3069 3071 3074 3076 3078 3080 3082 3084 3086 3087 3090 3091 3093 3094 3095 3096 3097 3098 3098 3099 3099 3100 3100 3100 3100 3100 3100 3100 3099 3098 3097 3096 3095 3094 3092 3091 3090 3088 3087 3085 3083 3081 3079 3077 3075 3072 3070 3068 3066 3064 3061 3059 3057 3054 3052 3049 3046 3044 3041 3038 3035 3032 3028 3024 3021 3017 3013 3009 3006 3002 2998 2994 2991 2987 2983 2979 2974
3053 3054 3055 3057 3058 3060 3061 3063 3065 3068 3071 3073 3075 3078 3080 3082 3083 3085 3087 3088 3090 3091 3093 3094 3095 3096 3096 3097 3097 3098 3098 3098 3098 3098 3098 3098 3097 3096 3095 3094 3093 3092 3090 3089 3088 3087 3085 3083 3081 3079 3077 3075 3073 3071 3069 3067 3065 3063 3061 3059 3056 3054 3052 3049 3047 3044 3042 3039 3036 3033 3029 3026 3023 3019 3015 3012 3009 3005 3001 2997 2994 2990 2987 2983 2979
3049 3051 3052 3053 3055 3057 3059 3061 3062 3065 3068 3071 3073 3076 3078 3079 3081 3083 3085 3086 3087 3089 3090 3091 3093 3094 3094 3095 3095 3096 3096 3096 3096 3096 3096 3095 3094 3094 3093 3093 3092 3090 3089 3087 3086 3084 3083 3081 3079 3077 3075 3073 3071 3069 3067 3066 3064 3062 3060 3057 3055 3053 3051 3049 3046 3044 3041 3039 3036 3033 3030 3027 3024 3021 3018 3014 3011 3007 3004 3000 2997 2994 2990 2987 2984
3046 3048 3049 3050 3052 3054 3056 3057 3059 3063 3066 3068 3071 3073 3076 3077 3079 3081 3082 3083 3085 3086 3088 3089 3090 3091 3092 3092 3093 3094 3094 3094 3094 3094 3093 3093 3092 3091 3091 3090 3089 3088 3086 3085 3083 3082 3080 3079 3077 3075 3073 3071 3069 3067 3066 3064 3062 3060 3058 3056 3054 3052 3050 3048 3045 3043 3041 3038 3036 3033 3031 3028 3025 3023 3020 3016 3013 3010 3007 3004 3001 2997 2994 2991 2988
3043 3044 3045 3046 3048 3050 3053 3055 3057 3060 3063 3065 3067 3070 3073 3075 3077 3078 3079 3081 3082 3083 3085 3086 3088 3089 3089 3090 3091 3091 3091 3092 3092 3091 3091 3090 3090 3089 3089 3088 3086 3085 3084 3082 3081 3079 3078 3076 3075 3073 3071 3069 3067 3065 3063 3061 3060 3058 3056 3054 3052 3050 3048 3046 3044 3042 3040 3038 3035 3033 3031 3028 3026 3023 3021 3018 3015 3012 3010 3007 3004 3001 2998 2994 2991
3039 3040 3041 3043 3045 3047 3050 3052 3054 3057 3059 3062 3064 3068 3071 3073 3074 3076 3077 3078 3079 3080 3082 3084 3085 3086 3087 3087 3088 3088 3089 3089 3089 3089 3089 3088 3088 3087 3086 3085 3084 3082 3081 3080 3078 3077 3075 3074 3072 3070 3069 3067 3065 3063 3061 3059 3057 3056 3054 3052 3050 3048 3046 3044 3042 3041 3039 3037 3035 3032 3030 3028 3026 3024 3022 3019 3017 3014 3011 3009 3006 3003 3000 2997 2994
3035 3037 3039 3040 3041 3043 3046 3049 3051 3054 3057 3059 3062 3065 3067 3069 3071 3073 3074 3076 3077 3078 3079 3081 3082 3083 3084 3085 3085 3086 3086 3086 3086 3086 3086 3085 3084 3084 3083 3082 3081 3080 3078 3076 3075 3074 3072 3071 3069 3068 3066 3064 3062 3060 3059 3057 3055 3053 3051 3050 3048 3046 3044 3042 3041 3039 3037 3035 3033 3031 3030 3028 3026 3024 3022 3019 3017 3015 3013 3010 3008 3005 3002 3000 2997
3033 3034 3036 3036 3037 3039 3042 3045 3047 3050 3053 3056 3059 3061 3064 3066 3068 3070 3071 3073 3074 3076 3077 3078 3079 3080 3081 3082 3082 3083 3083 3083 3083 3083 3082 3082 3081 3081 3080 3079 3078 3077 3075 3073 3072 3071 3070 3068 3067 3065 3063 3062 3060 3058 3056 3055 3053 3051 3049 3047 3046 3044 3042 3040 3039 3037 3035 3034 3032 3030 3029 3027 3025 3023 3021 3019 3017 3015 3013 3011 3008 3006 3004 3002 2999
3030 3032 3033 3033 3034 3035 3037 3040 3043 3046 3049 3052 3055 3058 3061 3064 3066 3067 3068 3070 3071 3073 3074 3075 3076 3077 3078 3079 3079 3079 3080 3080 3080 3079 3079 3078 3078 3077 3077 3076 3075 3073 3072 3070 3069 3068 3067 3066 3064 3062 3061 3059 3057 3056 3054 3052 3050 3049 3047 3045 3043 3042 3040 3038 3036 3034 3033 3032 3030 3029 3027 3026 3024 3022 3020 3019 3017 3015 3013 3011 3009 3007 3005 3003 3000
3028 3029 3030 3030 3031 3032 3034 3037 3039 3042 3045 3048 3052 3055 3058 3061 3063 3064 3065 3067 3068 3069 3070 3071 3073 3074 3074 3075 3076 3076 3076 3076 3076 3076 3075 3075 3074 3074 3073 3072 3071 3070 3069 3068 3067 3065 3064 3063 3061 3060 3058 3056 3055 3053 3052 3050 3048 3046 3045 3043 3041 3039 3037 3035 3034 3032 3030 3029 3028 3027 3025 3024 3022 3021 3019 3018 3016 3014 3012 3010 3009 3007 3005 3003 3001
3025 3026 3026 3027 3028 3029 3031 3034 3037 3039 3042 3045 3049 3052 3055 3058 3060 3061 3062 3063 3064 3066 3067 3068 3069 3070 3071 3072 3072 3073 3073 3073 3072 3072 3072 3071 3071 3070 3069 3069 3068 3067 3066 3064 3063 3062 3061 3059 3058 3056 3055 3053 3052 3051 3049 3048 3046 3044 3043 3041 3039 3037 3035 3033 3031 3029 3028 3026 3025 3024 3023 3022 3021 3019 3018 3017 3015 3013 3012 3010 3008 3007 3005 3003 3001
3022 3023 3023 3024 3025 3026 3029 3031 3034 3037 3040 3043 3046 3049 3052 3055 3057 3058 3059 3060 3061 3062 3063 3065 3066 3067 3067 3068 3068 3069 3069 3069 3069 3068 3068 3068 3067 3066 3066 3065 3064 3063 3061 3060 3059 3058 3057 3056 3055 3053 3052 3050 3049 3048 3046 3045 3044 3042 3040 3038 3037 3035 3033 3031 3029 3027 3025 3024 3023 3022 3021 3020 3018 3017 3016 3015 3014 3012 3011 3009 3008 3006 3004 3003 3001
3019 3020 3021 3022 3023 3024 3026 3029 3031 3034 3038 3041 3044 3047 3050 3052 3054 3055 3056 3057 3058 3059 3060 3061 3062 3063 3063 3064 3065 3065 3065 3065 3065 3064 3064 3064 3063 3062 3061 3060 3060 3058 3057 3056 3055 3054 3053 3052 3051 3050 3048 3047 3046 3045 3044 3042 3041 3039 3038 3036 3034 3032 3030 3028 3027 3025 3023 3021 3020 3019 3018 3017 3016 3015 3014 3013 3012 3011 3010 3008 3006 3005 3004 3002 3001
3017 3018 3018 3019 3020 3022 3024 3026 3029 3032 3035 3038 3042 3045 3047 3049 3050 3052 3053 3054 3055 3056 3057 3057 3058 3059 3059 3060 3060 3061 3061 3061 3060 3060 3060 3059 3059 3058 3057 3056 3055 3054 3053 3052 3051 3050 3050 3048 3047 3046 3045 3044 3043 3042 3041 3039 3038 3037 3035 3034 3032 3030 3028 3026 3024 3023 3021 3019 3018 3017 3016 3015 3014 3012 3011 3010 3009 3009 3008 3007 3005 3004 3002 3001 3000